This is the latest recevied weather packets stored in our database for station/object KF7SOJ. If no packets are shown the sender has not sent any weather packets the latest 10 day(s).
| Time | Temp. | Humidity | Pressure | Rain* | Wind** | Luminosity | Snow |
|---|---|---|---|---|---|---|---|
| 1788306500 | 27.78° C | 28% | 927.6 hPa | 0 mm | - | 368 W/m² | - |
| 1788306194 | 27.78° C | 28% | 927.9 hPa | 0 mm | - | 231 W/m² | - |
| 1788305889 | 27.78° C | 27% | 927.6 hPa | 0 mm | - | 394 W/m² | - |
| 1788305585 | 27.78° C | 28% | 927.5 hPa | 0 mm | - | 368 W/m² | - |
| 1788305281 | 27.22° C | 28% | 927.6 hPa | 0 mm | - | 454 W/m² | - |
| 1788304975 | 27.22° C | 28% | 927.7 hPa | 0 mm | - | 258 W/m² | - |
| 1788304671 | 27.22° C | 28% | 927.6 hPa | 0 mm | - | 450 W/m² | - |
| 1788304368 | 26.67° C | 29% | 927.6 hPa | 0 mm | - | 386 W/m² | - |
| 1788304063 | 26.67° C | 30% | 927.9 hPa | 0 mm | - | 530 W/m² | - |
| 1788303762 | 26.11° C | 30% | 927.7 hPa | 0 mm | - | 268 W/m² | - |
| 1788303458 | 26.11° C | 31% | 927.9 hPa | 0 mm | - | 261 W/m² | - |
| 1788303152 | 26.11° C | 31% | 928.1 hPa | 0 mm | - | 225 W/m² | - |
| 1788302849 | 26.67° C | 30% | 928.1 hPa | 0 mm | - | 229 W/m² | - |
| 1788302544 | 26.67° C | 30% | 928 hPa | 0 mm | - | 237 W/m² | - |
| 1788302240 | 27.22° C | 29% | 928.1 hPa | 0 mm | - | 239 W/m² | - |
| 1788301935 | 27.22° C | 30% | 928.1 hPa | 0 mm | - | 286 W/m² | - |
| 1788301631 | 27.22° C | 29% | 928.1 hPa | 0 mm | - | 560 W/m² | - |
| 1788301327 | 26.67° C | 31% | 928.3 hPa | 0 mm | - | 399 W/m² | - |
| 1788301023 | 26.67° C | 29% | 928.3 hPa | 0 mm | - | 476 W/m² | - |
| 1788300719 | 26.67° C | 30% | 928.3 hPa | 0 mm | - | 678 W/m² | - |
| 1788300417 | 26.67° C | 31% | 928.4 hPa | 0 mm | - | 705 W/m² | - |
| 1788300117 | 26.11° C | 32% | 928.3 hPa | 0 mm | - | 791 W/m² | - |
| 1788299816 | 25.56° C | 32% | 928.5 hPa | 0 mm | - | 827 W/m² | - |
| 1788299516 | 25° C | 33% | 928.4 hPa | 0 mm | - | 761 W/m² | - |
| 1788299214 | 24.44° C | 33% | 928.6 hPa | 0 mm | - | 407 W/m² | - |
* Rain latest hour (hover to see other rain measurements)
** Current wind speed in m/s (hover to see current wind gust speed)